Tracking 19242 objects as of 16-Aug-2018
HD Live streaming from Space Station
objects crossing your sky now

COSMOS 1771

Track COSMOS 1771 now!
10-day predictions
COSMOS 1771 is classified as:


NORAD ID: 16917
Int'l Code: 1986-062A
Perigee: 928.1 km
Apogee: 996.3 km
Inclination: 65.0 °
Period: 104.2 minutes
Semi major axis: 7333 km
RCS: 2.6102 m2 (large)
Launch date: August 20, 1986
Source: Commonwealth of Independent States (former USSR) (CIS)
Launch site: TYURATAM MISSILE AND SPACE COMPLEX (TTMTR)
aabbcc
Your satellite tracking list
Your tracking list is empty




NASA's NSSDC Master Catalog

Two Line Element Set (TLE):
1 16917U 86062A   18227.20122647 -.00000098  00000-0 -84754-5 0  9992
2 16917  64.9822 192.8295 0046515 173.0916 187.0794 13.82502826616197
Source of the keplerian elements: AFSPC